Location: Cambroso
(45.2833°N, 12.0850°E)
Time: 12:37:01
(UTC+00:00)

ATLAS 2AS CENTAUR R/B - Pass Details

Date: 21 January 2021
Orbit: 947 x 1265 km, 63.7° (Epoch: 13 February)

Event Time Altitude Azimuth Distance (km) Brightness Sun altitude
Rises 17:25:18 0° 262° (W) 4,218 7.7 -14.3°
Reaches altitude 10° 17:28:36 10° 274° (W) 3,252 6.5 -14.8°
Maximum altitude 17:35:18 29° 332° (NNW) 2,110 4.4 -16.0°
Drops below altitude 10° 17:41:51 10° 30° (NNE) 3,165 4.8 -17.1°
Enters shadow 17:42:08 - 32° (NNE) 3,241 4.8 -17.1°
